Location: Antichan
(42.9728°N, 0.6667°E)
Time: 14:28:24
(UTC+00:00)

SPOT 5 - Pass Details

Date: 15 August 2020
Orbit: 624 x 814 km, 98.3° (Epoch: 25 September)

Event Time Altitude Azimuth Distance (km) Brightness Sun altitude
Exits shadow 21:17:37 48° 78° (ENE) 825 2.9 -22.0°
Maximum altitude 21:17:45 48° 71° (ENE) 823 2.9 -22.0°
Drops below altitude 10° 21:22:01 10° 358° (N) 2,049 5.9 -22.6°
Sets 21:24:19 0° 353° (N) 2,985 6.9 -22.9°
